Terminal Aerodrome Forecast
Issued by NWS Duluth, MN

Home | Current Version | Previous Version | Text Only | Print | Product List | Glossary On
Versions: 1 2 3 4 5 6 7 8 9 10 11 12 13 14 15 16 17 18 19 20 21 22
000
FTUS43 KDLH 131100
TAFINL
TAF
KINL 131132Z 1312/1412 29009KT 6SM BR OVC008
      TEMPO 1312/1314 5SM -SN
     FM131400 31015G22KT P6SM OVC013
     FM131800 32015G24KT P6SM BKN025
     FM132200 32015G24KT P6SM BKN040
     FM140300 33012KT P6SM SCT050=

USA.gov is the U.S. government's official web portal to all federal, state and local government web resources and services.